EA1FBN Weather Reports


time (UTC)temp
F
wind
direction
speed
knots
gust
knots
rain 1hr
in
rain 24hr
in
rain mn
in
humidity
%
barometer
mb
20260506185003 61 179 0.9 0.9 0.00 0.02 0.02 45 1012.9
20260506184504 61 179 0.9 1.7 0.00 0.02 0.02 42 1012.8
20260506184004 61 179 0.9 0.9 0.00 0.02 0.02 43 1012.8
20260506183503 61 205 0.9 1.7 0.00 0.02 0.02 44 1012.8
20260506183004 61 236 1.7 2.6 0.00 0.02 0.02 42 1012.8
20260506182504 62 237 0.9 3.5 0.00 0.02 0.02 40 1012.9
20260506182004 63 202 0.0 2.6 0.00 0.02 0.02 38 1012.8
20260506181504 64 27 0.0 0.0 0.00 0.02 0.02 37 1012.9
20260506181004 63 27 0.0 0.0 0.00 0.02 0.02 38 1013.0
20260506180504 63 27 0.9 1.7 0.00 0.02 0.02 38 1012.9
20260506180005 62 116 0.9 1.7 0.00 0.02 0.02 40 1013.0
20260506175504 62 120 0.9 1.7 0.00 0.02 0.02 39 1013.0
20260506175004 62 166 0.9 3.5 0.00 0.02 0.02 40 1013.1
20260506174504 62 136 0.9 2.6 0.00 0.02 0.02 39 1013.1
20260506174004 62 79 0.9 1.7 0.00 0.02 0.02 39 1013.2
20260506173504 62 108 0.9 4.3 0.00 0.02 0.02 39 1013.2
20260506173004 62 60 0.9 3.5 0.00 0.02 0.02 39 1013.3
20260506172504 61 87 1.7 3.5 0.00 0.02 0.02 40 1013.3
20260506172004 60 105 2.6 6.1 0.00 0.02 0.02 40 1013.4
20260506171504 61 115 0.9 5.2 0.00 0.02 0.02 40 1013.4
20260506171004 62 122 1.7 2.6 0.00 0.02 0.02 42 1013.4
20260506170504 61 90 2.6 6.1 0.00 0.02 0.02 41 1013.4
20260506170004 61 102 2.6 5.2 0.00 0.02 0.02 40 1013.5
20260506165504 61 63 2.6 4.3 0.00 0.02 0.02 38 1013.5
20260506165004 61 142 2.6 5.2 0.00 0.02 0.02 39 1013.5
20260506164504 61 117 2.6 5.2 0.00 0.02 0.02 39 1013.5
20260506164004 61 122 3.5 6.1 0.00 0.02 0.02 39 1013.4
20260506163504 61 158 3.5 6.1 0.00 0.02 0.02 40 1013.4
20260506163004 61 111 3.5 7.0 0.00 0.02 0.02 40 1013.5
20260506162504 61 183 2.6 5.2 0.00 0.02 0.02 40 1013.6
20260506162004 61 102 2.6 6.1 0.00 0.02 0.02 40 1013.6
20260506161504 61 148 4.3 7.0 0.00 0.02 0.02 39 1013.6
20260506161004 61 60 3.5 7.0 0.00 0.02 0.02 38 1013.6
20260506160504 61 98 2.6 8.7 0.00 0.02 0.02 38 1013.6
20260506160004 61 4 2.6 5.2 0.00 0.02 0.02 40 1013.6
20260506155504 61 93 1.7 7.8 0.00 0.02 0.02 43 1013.6
20260506155004 60 251 2.6 6.1 0.00 0.02 0.02 41 1013.7
20260506154504 60 138 3.5 7.8 0.00 0.02 0.02 42 1013.7
20260506154004 60 138 2.6 5.2 0.00 0.02 0.02 41 1013.7
20260506153504 60 73 1.7 4.3 0.00 0.02 0.02 43 1013.8
20260506153004 60 279 1.7 3.5 0.00 0.02 0.02 44 1013.8
20260506152504 60 220 1.7 4.3 0.00 0.02 0.02 43 1013.9
20260506152004 61 209 0.9 3.5 0.00 0.02 0.02 42 1014.0
20260506151504 61 291 0.9 2.6 0.00 0.02 0.02 42 1014.0
20260506151004 60 356 0.9 2.6 0.00 0.02 0.02 46 1014.0
20260506150504 60 334 0.9 2.6 0.00 0.02 0.02 43 1014.1
20260506150004 61 326 0.9 3.5 0.00 0.02 0.02 43 1014.2
20260506145504 60 43 0.9 2.6 0.00 0.02 0.02 45 1014.2
20260506145004 59 98 1.7 5.2 0.00 0.02 0.02 43 1014.3
20260506144504 59 137 1.7 3.5 0.00 0.02 0.02 46 1014.3
20260506144004 59 342 1.7 3.5 0.00 0.02 0.02 45 1014.4
20260506143504 58 87 1.7 4.3 0.00 0.02 0.02 47 1014.5
20260506143004 58 129 1.7 3.5 0.00 0.02 0.02 48 1014.5
20260506142504 58 113 2.6 3.5 0.00 0.02 0.02 49 1014.6
20260506142004 58 115 3.5 5.2 0.00 0.02 0.02 50 1014.7
20260506141504 58 109 4.3 7.8 0.00 0.02 0.02 48 1014.7
20260506141004 59 96 3.5 7.0 0.00 0.02 0.02 49 1014.7
20260506140504 59 79 3.5 7.0 0.00 0.02 0.02 50 1014.8
20260506140005 58 79 4.3 7.0 0.00 0.02 0.02 48 1014.8
20260506135504 59 89 4.3 9.6 0.00 0.02 0.02 50 1014.8
20260506135004 59 91 2.6 9.6 0.00 0.02 0.02 49 1014.9
20260506134504 59 111 2.6 4.3 0.00 0.02 0.02 50 1014.9
20260506134004 59 69 2.6 6.1 0.00 0.02 0.02 48 1015.0
20260506133504 59 65 2.6 6.1 0.00 0.02 0.02 50 1015.1
20260506133004 59 100 2.6 5.2 0.00 0.02 0.02 52 1015.1
20260506132504 58 47 2.6 7.8 0.00 0.02 0.02 50 1015.1
20260506132005 58 81 1.7 7.0 0.00 0.02 0.02 52 1015.1
20260506131505 58 156 0.9 7.0 0.00 0.02 0.02 52 1015.2
20260506131005 58 153 0.9 0.9 0.00 0.02 0.02 52 1015.2
20260506130505 57 125 2.6 4.3 0.00 0.02 0.02 50 1015.3
20260506130005 57 147 2.6 5.2 0.00 0.02 0.02 53 1015.3
20260506125505 56 150 2.6 6.1 0.00 0.02 0.02 58 1015.3
20260506125005 56 229 0.9 5.2 0.00 0.02 0.02 56 1015.4
20260506124505 56 162 0.9 0.9 0.00 0.02 0.02 55 1015.4
20260506124005 56 141 2.6 7.0 0.00 0.02 0.02 54 1015.5
20260506123505 56 250 2.6 4.3 0.00 0.02 0.02 53 1015.5
20260506123005 56 156 2.6 6.1 0.00 0.02 0.02 56 1015.5
20260506122505 56 131 2.6 4.3 0.00 0.02 0.02 57 1015.6
20260506122005 56 156 1.7 5.2 0.00 0.02 0.02 57 1015.7
20260506121505 57 158 1.7 4.3 0.00 0.02 0.02 56 1015.6
20260506121005 56 210 1.7 3.5 0.00 0.02 0.02 58 1015.7
20260506120505 56 176 2.6 3.5 0.00 0.02 0.02 58 1015.8
20260506120005 57 175 1.7 7.0 0.00 0.02 0.02 58 1015.8
20260506115505 55 184 1.7 4.3 0.00 0.02 0.02 59 1015.9
20260506115005 55 179 2.6 4.3 0.00 0.02 0.02 58 1015.9
20260506114505 56 178 2.6 7.0 0.00 0.02 0.02 56 1015.9
20260506114005 56 65 1.7 5.2 0.00 0.02 0.02 54 1016.0
20260506113505 57 287 1.7 3.5 0.00 0.02 0.02 56 1016.0
20260506113005 56 356 1.7 4.3 0.00 0.02 0.02 57 1016.1
20260506112505 55 99 2.6 7.0 0.00 0.02 0.02 58 1016.1
20260506112005 55 110 2.6 6.1 0.00 0.02 0.02 59 1016.1
20260506111505 55 128 1.7 6.1 0.00 0.02 0.02 58 1016.2
20260506111005 55 110 1.7 3.5 0.00 0.02 0.02 58 1016.1
20260506110505 54 49 2.6 3.5 0.00 0.02 0.02 60 1016.1
20260506110005 54 160 2.6 6.1 0.00 0.02 0.02 60 1016.3
20260506105505 54 132 1.7 7.0 0.00 0.02 0.02 61 1016.2
20260506105005 54 71 1.7 5.2 0.00 0.02 0.02 63 1016.2
20260506104505 53 116 1.7 4.3 0.00 0.02 0.02 64 1016.2
20260506104005 53 208 1.7 4.3 0.00 0.02 0.02 62 1016.2
20260506103505 53 230 2.6 5.2 0.00 0.02 0.02 62 1016.2
20260506103005 53 211 1.7 6.1 0.00 0.02 0.02 63 1016.2
20260506102505 54 240 0.9 8.7 0.00 0.02 0.02 64 1016.3
20260506102005 53 75 0.0 2.6 0.00 0.02 0.02 66 1016.3
20260506101505 52 249 0.9 1.7 0.00 0.02 0.02 68 1016.3
20260506101005 52 257 0.9 2.6 0.00 0.02 0.02 69 1016.4
20260506100505 52 266 0.9 2.6 0.00 0.02 0.02 69 1016.5
20260506100005 52 256 0.9 2.6 0.00 0.02 0.02 72 1016.5
20260506095505 51 79 1.7 2.6 0.00 0.02 0.02 71 1016.5
20260506095005 51 242 1.7 4.3 0.01 0.02 0.02 73 1016.6
20260506094505 51 200 0.9 4.3 0.01 0.02 0.02 75 1016.6
20260506094005 50 333 0.9 2.6 0.01 0.02 0.02 52 1016.6
20260506093505 49 238 0.0 2.6 0.01 0.02 0.02 45 1016.6
20260506093005 49 310 0.0 2.6 0.01 0.02 0.02 43 1016.6
20260506092505 48 327 0.9 1.7 0.01 0.02 0.02 43 1016.6
20260506092005 48 340 0.9 1.7 0.01 0.02 0.02 44 1016.7
20260506091505 48 328 0.0 1.7 0.01 0.02 0.02 44 1016.7
20260506091005 47 322 0.0 0.9 0.01 0.02 0.02 45 1016.8
20260506090505 47 274 0.0 2.6 0.01 0.02 0.02 45 1016.8
20260506090005 47 240 0.0 1.7 0.01 0.02 0.02 45 1016.8
20260506085505 46 268 0.9 1.7 0.01 0.02 0.02 45 1016.8
20260506085005 46 349 0.9 2.6 0.00 0.01 0.01 46 1016.7
20260506084505 46 268 0.9 3.5 0.00 0.01 0.01 46 1016.7
20260506084005 45 324 0.0 2.6 0.00 0.01 0.01 47 1016.7
20260506083505 44 301 0.9 1.7 0.00 0.01 0.01 47 1016.6
20260506083006 44 290 0.9 3.5 0.00 0.01 0.01 47 1016.6
20260506082506 44 264 0.0 1.7 0.00 0.01 0.01 47 1016.6
20260506082006 43 281 0.9 1.7 0.00 0.01 0.01 48 1016.6
20260506081506 43 338 0.9 2.6 0.00 0.01 0.01 48 1016.7
20260506081006 42 304 0.9 2.6 0.00 0.01 0.01 49 1016.7
20260506080506 42 277 0.9 2.6 0.00 0.01 0.01 49 1016.7
20260506073506 40 329 0.0 0.9 0.00 0.01 0.01 50 1016.7
20260506073006 40 92 0.0 0.9 0.00 0.01 0.01 51 1016.7
20260506072506 40 340 0.0 0.9 0.00 0.01 0.01 51 1016.7
20260506072006 39 337 0.0 0.9 0.00 0.02 0.01 51 1016.8
20260506071506 39 328 0.0 0.9 0.00 0.02 0.01 51 1016.7
20260506071006 39 328 0.0 1.7 0.00 0.02 0.01 52 1016.6
20260506070506 39 347 0.0 1.7 0.00 0.02 0.01 52 1016.7
20260506062506 37 83 0.9 2.6 0.00 0.02 0.01 53 1016.4
20260506062006 38 136 0.0 2.6 0.00 0.02 0.01 53 1016.4
20260506061506 37 129 0.9 2.6 0.00 0.02 0.01 54 1016.4
20260506061006 37 96 0.9 2.6 0.00 0.02 0.01 54 1016.4
20260506060506 37 106 0.0 2.6 0.00 0.02 0.01 54 1016.4
20260506051006 38 91 0.0 0.9 0.00 0.02 0.01 55 1016.0
20260506050506 38 114 0.0 0.0 0.00 0.02 0.01 55 1015.9
20260506045006 38 114 0.0 0.0 0.00 0.02 0.01 55 1016.0
20260506044506 38 114 0.0 0.0 0.00 0.02 0.01 55 1016.0
20260506044006 38 114 0.0 0.9 0.00 0.02 0.01 55 1016.1
20260506043506 38 122 0.0 0.9 0.00 0.02 0.01 55 1016.2
20260506043006 39 113 0.0 0.9 0.00 0.02 0.01 55 1016.2
20260506042506 39 79 0.0 0.0 0.00 0.02 0.01 55 1016.2
20260506042006 39 78 0.0 0.0 0.00 0.02 0.01 55 1016.1
20260506041506 39 79 0.0 0.9 0.00 0.02 0.01 55 1016.2
20260506041006 39 78 0.0 0.0 0.00 0.02 0.01 55 1016.2
20260506040506 39 79 0.0 0.0 0.00 0.02 0.01 56 1016.2
20260506040006 39 73 0.0 0.9 0.00 0.02 0.01 56 1016.2
20260506035506 39 338 0.0 0.9 0.00 0.02 0.01 56 1016.0
20260506035006 38 297 0.0 0.9 0.00 0.02 0.01 57 1016.1
20260506034506 38 226 0.0 0.9 0.00 0.02 0.01 57 1016.1
20260506034006 38 226 0.0 0.0 0.00 0.02 0.01 58 1016.1
20260506033506 38 226 0.0 0.0 0.00 0.02 0.01 59 1016.2
20260506033007 38 226 0.0 0.0 0.00 0.02 0.01 59 1016.2
20260506032507 38 226 0.0 0.0 0.00 0.02 0.01 58 1016.2
20260506032007 39 226 0.0 0.0 0.00 0.02 0.01 58 1016.2
20260506031507 39 226 0.0 0.0 0.00 0.02 0.01 58 1016.2
20260506031007 39 226 0.0 0.0 0.00 0.02 0.01 59 1016.3
20260506030507 38 226 0.0 0.0 0.00 0.02 0.01 59 1016.3
20260506030007 39 226 0.0 0.9 0.00 0.02 0.01 59 1016.3
20260506025507 39 225 0.0 0.0 0.00 0.02 0.01 60 1016.3
20260506025007 39 226 0.0 0.9 0.00 0.02 0.01 60 1016.3
20260506024507 39 226 0.0 0.9 0.00 0.02 0.01 60 1016.2
20260506024007 39 226 0.0 0.0 0.00 0.02 0.01 61 1016.1
20260506022508 39 226 0.0 0.9 0.00 0.02 0.01 61 1016.0
20260506022007 39 219 0.0 0.9 0.00 0.02 0.01 62 1016.2
20260506021507 39 103 0.0 0.0 0.00 0.02 0.01 62 1016.2
20260506021007 39 103 0.0 0.0 0.00 0.02 0.01 62 1016.1
20260506015507 39 103 0.0 0.0 0.00 0.02 0.01 63 1016.1
20260506015007 40 103 0.0 0.0 0.00 0.02 0.01 63 1016.1
20260506014507 40 103 0.9 0.9 0.00 0.02 0.01 63 1016.1
20260506013507 40 85 1.7 2.6 0.00 0.02 0.01 63 1016.2
20260506013007 40 94 1.7 2.6 0.00 0.02 0.01 64 1016.2
20260506012507 41 103 1.7 3.5 0.00 0.02 0.01 64 1016.2
20260506012007 41 96 1.7 3.5 0.00 0.02 0.01 63 1016.2
20260506011507 41 90 1.7 3.5 0.00 0.02 0.01 62 1016.2
20260506011007 42 108 0.9 2.6 0.00 0.02 0.01 62 1016.2
20260506010507 42 72 0.0 0.9 0.01 0.02 0.01 63 1016.2
20260506010007 42 72 0.0 0.0 0.01 0.02 0.01 63 1016.2
20260506005507 42 72 0.0 0.0 0.01 0.02 0.01 63 1016.2
20260506005007 42 72 0.9 0.9 0.01 0.02 0.01 63 1016.2
20260506004507 42 72 0.9 1.7 0.01 0.02 0.01 62 1016.2
20260506004007 42 68 0.0 0.9 0.01 0.02 0.01 62 1016.3
20260506003507 42 76 0.0 0.9 0.01 0.02 0.01 61 1016.3
20260506003007 42 68 0.0 0.9 0.01 0.02 0.01 61 1016.4
20260506002507 42 68 0.0 0.9 0.01 0.02 0.01 62 1016.5
20260506002007 42 359 0.0 0.0 0.01 0.02 0.01 63 1016.4
20260506001507 42 357 0.0 0.9 0.01 0.02 0.01 63 1016.4
20260506001007 42 1 0.0 0.9 0.01 0.02 0.01 63 1016.3
20260506000507 42 53 0.0 0.9 0.00 0.01 0.00 63 1016.4
20260506000007 42 333 0.0 0.0 0.00 0.01 0.00 64 1016.3
20260505235507 42 333 0.0 0.0 0.00 0.01 0.00 64 1016.3
20260505235007 42 332 0.0 0.0 0.00 0.01 0.00 64 1016.3
20260505234507 42 332 0.0 0.0 0.00 0.01 0.00 63 1016.3
20260505234007 43 333 0.0 0.0 0.00 0.01 0.00 63 1016.3
20260505233507 42 333 0.0 0.9 0.00 0.01 0.00 63 1016.3
20260505233007 42 330 0.0 0.9 0.00 0.01 0.00 64 1016.4
20260505232507 42 300 0.0 0.9 0.00 0.01 0.00 63 1016.4
20260505232007 42 304 0.0 0.0 0.00 0.01 0.00 63 1016.5
20260505231507 42 309 0.9 0.9 0.00 0.01 0.00 64 1016.5
20260505231007 42 339 0.9 1.7 0.00 0.01 0.00 64 1016.5
20260505230507 42 330 0.9 2.6 0.00 0.01 0.00 65 1016.4
20260505230007 42 1 0.9 1.7 0.00 0.01 0.00 66 1016.4
20260505225507 42 274 0.0 0.0 0.00 0.01 0.00 66 1016.4
20260505225007 42 274 0.0 0.0 0.00 0.01 0.00 67 1016.5
20260505224515 43 274 0.0 0.0 0.00 0.01 0.00 67 1016.5
20260505224008 43 274 0.0 0.0 0.00 0.01 0.00 67 1016.5
20260505223507 43 274 0.0 1.7 0.00 0.01 0.00 68 1016.6
20260505223007 43 85 0.0 0.0 0.00 0.01 0.00 68 1016.6
20260505222508 43 85 0.0 0.0 0.00 0.01 0.00 70 1016.6
20260505222008 43 85 0.0 0.0 0.00 0.01 0.00 70 1016.5
20260505221508 43 85 0.0 0.0 0.00 0.01 0.00 70 1016.5
20260505221008 44 85 0.0 0.0 0.00 0.01 0.00 71 1016.5
20260505220508 44 85 0.0 0.0 0.00 0.01 0.00 71 1016.6
20260505220008 44 84 0.0 0.9 0.00 0.01 0.01 71 1016.6
20260505215508 44 91 0.0 0.9 0.00 0.01 0.01 72 1016.6
20260505215008 45 120 0.0 0.9 0.00 0.01 0.01 72 1016.6
20260505214508 45 120 0.9 1.7 0.00 0.01 0.01 72 1016.5
20260505214008 45 116 1.7 2.6 0.00 0.01 0.01 72 1016.5
20260505213508 45 95 1.7 2.6 0.00 0.01 0.01 71 1016.5
20260505213008 45 110 0.9 2.6 0.00 0.01 0.01 71 1016.5
20260505212508 45 108 0.0 0.9 0.00 0.01 0.01 70 1016.5
20260505212008 45 100 0.0 0.0 0.00 0.01 0.01 70 1016.5
20260505211508 45 100 0.0 0.0 0.00 0.01 0.01 71 1016.5
20260505211008 45 101 0.0 0.0 0.00 0.01 0.01 71 1016.5
20260505210508 45 101 0.0 0.0 0.00 0.01 0.01 72 1016.5
20260505210008 45 101 0.0 0.0 0.00 0.01 0.01 73 1016.5
20260505205508 45 101 0.0 0.0 0.00 0.01 0.01 73 1016.4
20260505205008 45 101 0.0 0.9 0.00 0.01 0.01 74 1016.3
20260505204508 45 97 0.9 0.9 0.00 0.01 0.01 74 1016.2
20260505204008 45 96 0.0 3.5 0.00 0.01 0.01 74 1016.2
20260505203508 45 323 0.0 0.0 0.00 0.01 0.01 75 1016.2
20260505203008 46 323 0.0 0.0 0.00 0.01 0.01 75 1016.1
20260505202508 46 323 0.0 0.0 0.00 0.01 0.01 75 1016.2
20260505202008 46 323 0.0 0.0 0.00 0.02 0.01 75 1016.1
20260505201508 46 323 0.0 0.0 0.00 0.02 0.01 75 1016.0
20260505201008 47 323 0.0 0.0 0.00 0.02 0.01 75 1015.9
20260505200508 47 323 0.0 0.0 0.00 0.02 0.01 75 1015.9
20260505200008 47 323 0.0 0.0 0.00 0.02 0.01 75 1015.9
20260505195508 47 323 0.0 0.0 0.00 0.02 0.01 75 1015.8
20260505195008 47 323 0.0 0.0 0.00 0.02 0.01 75 1015.8
20260505194508 47 323 0.0 0.0 0.00 0.02 0.01 75 1015.8
20260505194008 48 323 0.0 0.0 0.00 0.02 0.01 75 1015.7
20260505193508 48 323 0.0 0.0 0.00 0.02 0.01 75 1015.7
20260505193009 48 323 0.0 0.9 0.00 0.02 0.01 75 1015.6
20260505192508 49 323 0.0 0.9 0.00 0.02 0.01 74 1015.6
20260505192008 49 333 0.0 0.9 0.00 0.02 0.01 74 1015.5
20260505191508 49 34 0.0 0.9 0.00 0.02 0.01 74 1015.5
20260505191008 49 69 0.0 0.9 0.00 0.02 0.01 74 1015.5
20260505190508 50 73 0.9 1.7 0.00 0.02 0.01 74 1015.5
20260505190008 50 79 1.7 3.5 0.00 0.02 0.01 74 1015.5
20260505185508 50 68 2.6 4.3 0.00 0.02 0.01 74 1015.6